Retour au catalogue

SCH-619

ActifCommunicationsSSO
NORAD 67271·PAYLOAD·🇷🇺 Russia
Ce nom de satellite n'a pas encore été confirmé par des sources officielles.

Lancé Dec 28, 2025 depuis Vostochny Cosmodrome

Loading…

Prochains Passages (prochaines 24 heures)

TLE

FraisSource: Space-Track

Époque: Sep 14, 2026, 12:14 UTC

1 67271U 25313Z   26257.51029843  .00003283  00000-0  14550-3 0  9995
2 67271  97.3866 330.4001 0015926  52.7771 307.4916 15.22208441 39525

Suivez SCH-619 en temps réel avec AllMySat

Download on the App Store